• In Deutschland
  • Länderverzeichnis
  • Für 7 Tage
  • Wassertemperatur
  • Satellitenkarten
  • Wetterkarte
  • Widgets
  • user-avatar
    Anmelden

    Stündliche Wetter Río Gallegos

    Heute, 22 September, Freitag

    Zeit Temperatur Niederschläge Wind Luftdruck Luftfeuchtigkeit
    00:00 +7°C° 0,1 mm 6 m/S 753 mmHg 75%
    01:00 +5°C° 0,1 mm 6 m/S 753 mmHg 77%
    02:00 +6°C° 0,1 mm 5 m/S 754 mmHg 79%
    03:00 +6°C° 0,1 mm 5 m/S 754 mmHg 81%
    04:00 +6°C° 0,1 mm 4 m/S 755 mmHg 83%
    05:00 +7°C° 0,1 mm 3 m/S 756 mmHg 83%
    06:00 +7°C° 0,1 mm 2 m/S 756 mmHg 82%
    07:00 +7°C° 0,1 mm 2 m/S 757 mmHg 81%
    08:00 +8°C° 0 mm 2 m/S 757 mmHg 76%
    09:00 +9°C° 0 mm 2 m/S 758 mmHg 71%
    10:00 +10°C° 0 mm 2 m/S 758 mmHg 66%
    11:00 +10°C° 0 mm 3 m/S 758 mmHg 62%
    12:00 +11°C° 0 mm 4 m/S 758 mmHg 59%
    13:00 +12°C° 0 mm 5 m/S 758 mmHg 55%
    14:00 +12°C° 0 mm 5 m/S 758 mmHg 54%
    15:00 +12°C° 0 mm 5 m/S 758 mmHg 52%
    16:00 +12°C° 0 mm 5 m/S 757 mmHg 50%
    17:00 +10°C° 0 mm 5 m/S 757 mmHg 54%
    18:00 +10°C° 0 mm 5 m/S 757 mmHg 58%
    19:00 +9°C° 0 mm 5 m/S 757 mmHg 62%
    20:00 +9°C° 0 mm 5 m/S 757 mmHg 65%
    21:00 +8°C° 0 mm 6 m/S 756 mmHg 69%
    22:00 +8°C° 0 mm 6 m/S 756 mmHg 72%
    23:00 +8°C° 0 mm 7 m/S 755 mmHg 73%

    Morgen, 23 September, Samstag

    Zeit Temperatur Niederschläge Wind Luftdruck Luftfeuchtigkeit
    00:00 +6°C° 0 mm 8 m/S 754 mmHg 75%
    01:00 +6°C° 0 mm 9 m/S 753 mmHg 76%
    02:00 +6°C° 0 mm 8 m/S 752 mmHg 73%
    03:00 +6°C° 0 mm 8 m/S 751 mmHg 69%
    04:00 +6°C° 0 mm 7 m/S 750 mmHg 65%
    05:00 +8°C° 0 mm 7 m/S 749 mmHg 64%
    06:00 +7°C° 0 mm 8 m/S 749 mmHg 62%
    07:00 +7°C° 0 mm 8 m/S 748 mmHg 61%
    08:00 +10°C° 0 mm 7 m/S 747 mmHg 57%
    09:00 +12°C° 0 mm 7 m/S 747 mmHg 53%
    10:00 +14°C° 0 mm 7 m/S 746 mmHg 50%
    11:00 +14°C° 0 mm 6 m/S 746 mmHg 51%
    12:00 +14°C° 0 mm 5 m/S 745 mmHg 52%
    13:00 +15°C° 0 mm 4 m/S 744 mmHg 53%
    14:00 +14°C° 0,2 mm 4 m/S 743 mmHg 58%
    15:00 +13°C° 0,2 mm 4 m/S 743 mmHg 63%
    16:00 +12°C° 0,2 mm 4 m/S 742 mmHg 69%
    17:00 +12°C° 0 mm 5 m/S 741 mmHg 67%
    18:00 +12°C° 0 mm 5 m/S 740 mmHg 66%
    19:00 +11°C° 0 mm 6 m/S 739 mmHg 64%
    20:00 +11°C° 0 mm 7 m/S 738 mmHg 62%
    21:00 +11°C° 0 mm 9 m/S 737 mmHg 60%
    22:00 +11°C° 0 mm 10 m/S 736 mmHg 58%
    23:00 +11°C° 0,1 mm 10 m/S 734 mmHg 58%

    übermorgen, 24 September, Sonntag

    Zeit Temperatur Niederschläge Wind Luftdruck Luftfeuchtigkeit
    00:00 +11°C° 0,1 mm 10 m/S 733 mmHg 57%
    01:00 +9°C° 0,1 mm 10 m/S 732 mmHg 57%
    02:00 +10°C° 0 mm 9 m/S 730 mmHg 60%
    03:00 +9°C° 0 mm 8 m/S 729 mmHg 63%
    04:00 +8°C° 0 mm 7 m/S 728 mmHg 66%
    05:00 +7°C° 0,1 mm 11 m/S 729 mmHg 65%
    06:00 +5°C° 0,1 mm 14 m/S 730 mmHg 64%
    07:00 +5°C° 0,1 mm 17 m/S 731 mmHg 63%
    08:00 +5°C° 0 mm 18 m/S 732 mmHg 57%
    09:00 +5°C° 0 mm 19 m/S 734 mmHg 51%
    10:00 +4°C° 0 mm 21 m/S 736 mmHg 44%
    11:00 +4°C° 0 mm 20 m/S 737 mmHg 43%
    12:00 +4°C° 0 mm 20 m/S 738 mmHg 43%
    13:00 +5°C° 0 mm 19 m/S 739 mmHg 42%
    14:00 +3°C° 0 mm 19 m/S 739 mmHg 43%
    15:00 +3°C° 0 mm 19 m/S 740 mmHg 45%
    16:00 +2°C° 0 mm 19 m/S 741 mmHg 47%
    17:00 +2°C° 0,1 mm 19 m/S 742 mmHg 49%
    18:00 +1°C° 0,1 mm 18 m/S 743 mmHg 51%
    19:00 +1°C° 0,1 mm 18 m/S 745 mmHg 53%
    20:00 0°C° 0 mm 17 m/S 746 mmHg 55%
    21:00 0°C° 0 mm 16 m/S 748 mmHg 56%
    22:00 -1°C° 0 mm 15 m/S 749 mmHg 58%
    23:00 -1°C° 0 mm 15 m/S 750 mmHg 59%

    25 September, Montag

    Zeit Temperatur Niederschläge Wind Luftdruck Luftfeuchtigkeit
    00:00 -1°C° 0 mm 14 m/S 752 mmHg 60%
    01:00 -1°C° 0 mm 13 m/S 753 mmHg 62%
    02:00 -1°C° 0 mm 13 m/S 754 mmHg 62%
    03:00 -2°C° 0 mm 12 m/S 755 mmHg 61%
    04:00 -2°C° 0 mm 12 m/S 756 mmHg 61%
    05:00 -2°C° 0 mm 12 m/S 757 mmHg 61%
    06:00 -1°C° 0 mm 12 m/S 758 mmHg 61%
    07:00 -1°C° 0 mm 12 m/S 759 mmHg 61%
    08:00 0°C° 0 mm 12 m/S 759 mmHg 57%
    09:00 +2°C° 0 mm 12 m/S 760 mmHg 53%
    10:00 +3°C° 0 mm 12 m/S 760 mmHg 50%
    11:00 +4°C° 0 mm 12 m/S 760 mmHg 50%
    12:00 +4°C° 0 mm 12 m/S 761 mmHg 49%
    13:00 +5°C° 0 mm 12 m/S 761 mmHg 49%
    14:00 +5°C° 0 mm 12 m/S 761 mmHg 50%
    15:00 +5°C° 0 mm 12 m/S 761 mmHg 51%
    16:00 +5°C° 0 mm 12 m/S 762 mmHg 52%
    17:00 +4°C° 0 mm 11 m/S 762 mmHg 55%
    18:00 +3°C° 0 mm 11 m/S 763 mmHg 59%
    19:00 +2°C° 0 mm 10 m/S 763 mmHg 63%
    20:00 +2°C° 0 mm 10 m/S 764 mmHg 63%
    21:00 +2°C° 0 mm 10 m/S 764 mmHg 63%
    22:00 +1°C° 0 mm 10 m/S 764 mmHg 64%
    23:00 +1°C° 0 mm 10 m/S 764 mmHg 64%

    26 September, Dienstag

    Zeit Temperatur Niederschläge Wind Luftdruck Luftfeuchtigkeit
    00:00 +1°C° 0 mm 10 m/S 764 mmHg 63%
    01:00 +1°C° 0 mm 10 m/S 764 mmHg 63%
    02:00 0°C° 0 mm 9 m/S 764 mmHg 63%
    03:00 0°C° 0 mm 9 m/S 764 mmHg 64%
    04:00 0°C° 0 mm 9 m/S 764 mmHg 64%
    05:00 0°C° 0 mm 9 m/S 764 mmHg 61%
    06:00 +1°C° 0 mm 9 m/S 764 mmHg 59%
    07:00 +2°C° 0 mm 9 m/S 764 mmHg 57%
    08:00 +3°C° 0 mm 9 m/S 763 mmHg 52%
    09:00 +5°C° 0 mm 9 m/S 763 mmHg 48%
    10:00 +7°C° 0 mm 10 m/S 762 mmHg 43%
    11:00 +7°C° 0 mm 10 m/S 762 mmHg 42%
    12:00 +8°C° 0 mm 10 m/S 761 mmHg 40%
    13:00 +9°C° 0 mm 10 m/S 761 mmHg 39%
    14:00 +8°C° 0 mm 9 m/S 761 mmHg 40%
    15:00 +9°C° 0 mm 8 m/S 760 mmHg 41%
    16:00 +9°C° 0 mm 8 m/S 760 mmHg 42%
    17:00 +8°C° 0 mm 7 m/S 760 mmHg 46%
    18:00 +7°C° 0 mm 6 m/S 760 mmHg 50%
    19:00 +6°C° 0 mm 5 m/S 760 mmHg 55%
    20:00 +5°C° 0 mm 4 m/S 759 mmHg 56%
    21:00 +5°C° 0 mm 4 m/S 758 mmHg 56%
    22:00 +4°C° 0 mm 3 m/S 758 mmHg 57%
    23:00 +5°C° 0 mm 4 m/S 757 mmHg 56%

    27 September, Mittwoch

    Zeit Temperatur Niederschläge Wind Luftdruck Luftfeuchtigkeit
    00:00 +4°C° 0 mm 6 m/S 756 mmHg 55%
    01:00 +4°C° 0 mm 7 m/S 755 mmHg 53%
    02:00 +4°C° 0,1 mm 7 m/S 754 mmHg 53%
    03:00 +4°C° 0,1 mm 8 m/S 753 mmHg 54%
    04:00 +5°C° 0,1 mm 8 m/S 752 mmHg 54%
    05:00 +5°C° 0,2 mm 8 m/S 751 mmHg 55%
    06:00 +5°C° 0,2 mm 8 m/S 751 mmHg 56%
    07:00 +6°C° 0,2 mm 8 m/S 751 mmHg 57%
    08:00 +7°C° 0 mm 9 m/S 750 mmHg 56%
    09:00 +9°C° 0 mm 10 m/S 750 mmHg 54%
    10:00 +11°C° 0 mm 11 m/S 750 mmHg 52%
    11:00 +11°C° 0 mm 11 m/S 750 mmHg 54%
    12:00 +11°C° 0 mm 11 m/S 750 mmHg 56%
    13:00 +11°C° 0 mm 11 m/S 750 mmHg 58%
    14:00 +11°C° 0 mm 11 m/S 750 mmHg 56%
    15:00 +11°C° 0 mm 11 m/S 750 mmHg 55%
    16:00 +11°C° 0 mm 10 m/S 750 mmHg 53%
    17:00 +10°C° 0 mm 9 m/S 750 mmHg 57%
    18:00 +9°C° 0 mm 7 m/S 750 mmHg 62%
    19:00 +8°C° 0 mm 5 m/S 750 mmHg 66%
    20:00 +8°C° 0 mm 5 m/S 749 mmHg 67%
    21:00 +8°C° 0 mm 5 m/S 748 mmHg 67%
    22:00 +8°C° 0 mm 5 m/S 748 mmHg 68%
    23:00 +8°C° 0 mm 4 m/S 747 mmHg 69%
    Mehr zeigen